Probability
0 0 0 0 0 0 0 0 0 0 0 0 0 0 0 0 0 0 0 0 0 0 0 0 0 0 0 0 0 0 0 0 0 0 0 0 0 0 0 0 0 0 0 0
0 0 0 0 0 0 0 0 0 0 0 0 0 0 0 0 0 0 0 0 0 0 0 0 0 0 0 0 0 0 0 0 0 0 0 0 0 0 0 0 0 0 0 0
0 0 0 0 0 0 0 0 0 0 0 0 0 0 0 0 0 0 0 0 0 0 0 0 0 0 0 0 0 0 0 0 0 0 0 0 0 0 0 0 0 0 0 0
0 0 0 0 0 0 0 0 0 0 0 0 0 0 0 0 0 0 0 0 0 0 0 0 0 0 0 0 0 0 0 0 0 0 0 0 0 0 0 0 0 0 0 0
0 0 0 0 0 0 0 0 0 0 0 0 0 0 0 0 0 0 0 0 0 0 0 0 0 0 0 0 0 0 0 0 0 0 0 0 0 0 0 0 0 0 0 0
0 0 0 0 0 0 0 0 0 0 0 0 0 0 0 0 0 0 0 0 0 0 0 0 0 0 0 0 0 0 0 0 0 0 0 0 0 0 0 0 0 0 0 0
0 0 0 0 0 0 0 0 0 0 0 0 0 0 0 0 0 0 0 0 0 0 0 0 0 0 0 0 0 0 0 0 0 0 0 0 0 0 0 0 0 0 0 0
0 0 0 0 0 0 0 0 0 0 0 0 0 0 0 0 0 0 0 0 0 0 0 0 0 0 0 0 0 0 0 0 0 0 0 0 0 0 0 0 0 0 0 0
0 0 0 0 0 0 0 0 0 0 0 0 0 0 0 0 0 0 0 0 0 0 0 0 0 0 0 0 0 0 0 0 0 0 0 0 0 0 0 0 0 0 0 0
0 0 0 0 0 0 0 0 0 0 0 0 0 0 0 0 0 0 0 0 0 0 0 0 0 0 0 0 0 0 0 0 0 0 0 0 0 0 0 0 0 0 0 0
0 0 0 0 0 0 0 0 0 0 0 0 0 0 0 0 0 0 0 0 0 0 0 0 0 0 0 0 0 0 0 0 0 0 0 0 0 0 0 0 0 0 0 0
0 0 0 0 0 0 0 0 0 0 0 0 0 0 0 0 0 0 0 0 0 0 0 0 0 0 0 0 0 0 0 0 0 0 0 0 0 0 0 0 0 0 0 0
0 0 0 0 0 0 0 0 0 0 0 0 0 0 0 0 0 0 0 0 0 0 0 0 0 0 0 0 0 0 0 0 0 0 0 0 0 0 0 0 0 0 0 0
0 0 0 0 0 0 0 0 0 0 0 0 0 0 0 0 0 0 0 0 0 0 0 0 0 0 0 0 0 0 0 0 0 0 0 0 0 0 0 0 0 0 0 0
0 0 0 0 0 0 0 0 0 0 0 0 0 0 0 0 0 0 0 0 0 0 0 0 0 0 0 0 0 0 0 0 0 0 0 0 0 0 0 0 0 0 0 0
0 0 0 0 0 0 0 0 0 0 0 0 0 0 0 0 0 0 0 0 0 0 0 0 0 0 0 0 0 0 0 0 0 0 0 0 0 0 0 0 0 0 0 0
0 0 0 0 0 0 0 0 0 0 0 0 0 0 0 0 0 0 0 0 0 0 0 0 0 0 0 0 0 0 0 0 0 0 0 0 0 0 0 0 0 0 0 0
0 0 0 0 0 0 0 0 0 0 0 0 0 0 0 0 0 0 0 0 0 0 0 0 0 0 0 0 0 0 0 0 0 0 0 0 0 0 0 0 0 0 0 0
0 0 0 0 0 0 0 0 0 0 0 0 0 0 0 0 0 0 0 0 0 0 0 0 0 0 0 0 0 0 0 0 0 0 0 0 0 0 0 0 0 0 0 0
0 0 0 0 0 0 0 0 0 0 0 0 0 0 0 0 0 0 0 0 0 0 0 0 0 0 0 0 0 0 0 0 0 0 0 0 0 0 0 0 0 0 0 0
0 0 0 0 0 0 0 0 0 0 0 0 0 0 0 0 0 0 0 0 0 0 0 0 0 0 0 0 0 0 0 0 0 0 0 0 0 0 0 0 0 0 0 0
0 0 0 0 0 0 0 0 0 0 0 0 0 0 0 0 0 0 0 0 0 0 0 0 0 0 0 0 0 0 0 0 0 0 0 0 0 0 0 0 0 0 0 0
0 0 0 0 0 0 0 0 0 0 0 0 0 0 0 0 0 0 0 0 0 0 0 0 0 0 0 0 0 0 0 0 0 0 0 0 0 0 0 0 0 0 0 0
0 0 0 0 0 0 0 0 0 0 0 0 0 0 0 0 0 0 0 0 0 0 0 0 0 0 0 0 0 0 0 0 0 0 0 0 0 0 0 0 0 0 0 0
0 0 0 0 0 0 0 0 0 0 0 0 0 0 0 0 0 0 0 0 0 0 0 0 0 0 0 0 0 0 0 0 0 0 0 0 0 0 0 0 0 0 0 0
0 0 0 0 0 0 0 0 0 0 0 0 0 0 0 0 0 0 0 0 0 0 0 0 0 0 0 0 0 0 0 0 0 0 0 0 0 0 0 0 0 0 0 0
0 0 0 0 0 0 0 0 0 0 0 0 0 0 0 0 0 0 0 0 0 0 0 0 0 0 0 0 0 0 0 0 0 0 0 0 0 0 0 0 0 0 0 0
Height
5816 5817 5818 5820 5821 5822 5823 5825 5826 5827 5827 5829 5829 5830 5830 5831 5831 5831 5831 5831 5831 5830 5830 5829 5828 5827 5826 5826 5825 5823 5822 5821 5820 5819 5817 5816 5814 5812 5811 5809 5807 5805 5803 5801
5815 5816 5817 5818 5819 5820 5821 5822 5824 5824 5826 5826 5827 5827 5828 5828 5828 5829 5828 5828 5828 5827 5827 5826 5825 5824 5823 5822 5821 5820 5818 5817 5816 5815 5813 5811 5810 5808 5807 5805 5803 5801 5799 5797
5813 5814 5815 5817 5818 5818 5819 5820 5821 5822 5824 5823 5824 5825 5825 5825 5825 5825 5825 5825 5824 5824 5823 5822 5821 5820 5819 5817 5816 5815 5814 5813 5811 5810 5808 5807 5805 5803 5802 5800 5798 5796 5795 5793
5811 5812 5813 5816 5815 5815 5816 5817 5818 5819 5820 5820 5821 5821 5821 5821 5821 5821 5821 5821 5820 5819 5818 5817 5816 5815 5814 5812 5811 5810 5808 5807 5806 5804 5802 5801 5799 5798 5796 5794 5793 5791 5789 5787
5808 5808 5810 5811 5812 5812 5813 5814 5814 5815 5816 5816 5817 5817 5817 5817 5817 5817 5816 5816 5815 5814 5813 5812 5811 5809 5808 5807 5805 5804 5802 5801 5799 5798 5796 5794 5792 5791 5789 5787 5786 5784 5782 5781
5804 5805 5806 5809 5808 5808 5810 5810 5811 5811 5811 5812 5812 5812 5813 5812 5812 5811 5811 5810 5809 5808 5807 5806 5805 5803 5802 5800 5798 5797 5795 5794 5792 5790 5788 5787 5785 5783 5781 5779 5778 5776 5775 5773
5799 5800 5801 5803 5803 5804 5806 5807 5806 5806 5806 5807 5807 5807 5807 5806 5806 5805 5805 5804 5803 5802 5800 5799 5798 5796 5794 5793 5791 5789 5787 5785 5783 5782 5780 5778 5776 5774 5772 5770 5769 5767 5765 5764
5794 5795 5798 5797 5798 5799 5800 5799 5800 5800 5800 5801 5801 5800 5800 5800 5799 5798 5798 5796 5795 5794 5793 5791 5789 5788 5786 5784 5783 5780 5778 5776 5774 5772 5770 5768 5766 5764 5762 5760 5758 5757 5755 5753
5790 5791 5791 5791 5792 5792 5793 5793 5793 5793 5794 5794 5793 5793 5793 5792 5792 5791 5790 5788 5787 5785 5784 5782 5780 5778 5777 5775 5772 5770 5768 5766 5763 5761 5758 5756 5754 5752 5750 5748 5746 5745 5743 5742
5782 5783 5783 5784 5784 5785 5785 5786 5786 5786 5786 5786 5786 5785 5785 5784 5783 5782 5781 5779 5778 5776 5774 5772 5770 5768 5766 5764 5761 5759 5756 5754 5751 5748 5746 5743 5741 5739 5737 5735 5733 5731 5730 5728
5774 5775 5776 5776 5777 5777 5778 5778 5778 5778 5777 5777 5777 5776 5775 5774 5773 5772 5771 5769 5767 5766 5764 5761 5759 5757 5754 5751 5749 5747 5744 5741 5738 5735 5732 5730 5727 5724 5722 5720 5718 5716 5715 5713
5766 5767 5768 5768 5768 5769 5769 5769 5769 5769 5768 5767 5767 5766 5765 5764 5763 5761 5759 5758 5756 5754 5751 5749 5747 5744 5741 5738 5736 5733 5730 5727 5724 5721 5718 5714 5711 5709 5706 5704 5702 5700 5699 5698
5757 5757 5758 5759 5759 5759 5759 5759 5759 5758 5758 5757 5756 5755 5754 5752 5751 5749 5747 5745 5743 5740 5738 5735 5732 5730 5727 5724 5721 5718 5715 5712 5708 5705 5702 5698 5695 5692 5689 5688 5685 5684 5682 5681
5746 5747 5748 5748 5749 5749 5749 5748 5748 5747 5746 5745 5744 5743 5742 5740 5738 5736 5734 5731 5729 5726 5723 5720 5718 5715 5712 5709 5706 5702 5699 5695 5691 5688 5684 5681 5677 5674 5671 5669 5668 5667 5665 5664
5736 5736 5737 5737 5737 5737 5737 5736 5736 5735 5734 5733 5731 5730 5728 5726 5724 5722 5719 5716 5714 5711 5708 5705 5702 5699 5695 5692 5689 5685 5681 5678 5673 5670 5666 5662 5659 5656 5653 5650 5648 5647 5647 5646
5724 5724 5725 5725 5725 5724 5724 5723 5723 5722 5721 5719 5718 5716 5714 5712 5710 5707 5704 5701 5698 5695 5692 5688 5685 5682 5679 5675 5671 5667 5663 5659 5654 5650 5647 5643 5640 5636 5633 5631 5629 5627 5627 5627
5711 5711 5712 5712 5712 5711 5711 5710 5709 5708 5707 5705 5704 5702 5699 5697 5694 5692 5688 5685 5682 5678 5675 5672 5668 5665 5661 5656 5651 5647 5644 5640 5635 5631 5627 5624 5620 5617 5614 5611 5609 5608 5607 5607
5698 5698 5698 5698 5698 5697 5697 5696 5695 5694 5692 5691 5689 5687 5684 5681 5678 5675 5672 5669 5665 5662 5658 5654 5650 5646 5642 5637 5632 5628 5623 5620 5616 5612 5608 5604 5601 5597 5594 5592 5590 5588 5588 5587
5684 5684 5684 5684 5683 5683 5682 5681 5680 5678 5677 5675 5673 5671 5668 5665 5662 5659 5656 5652 5648 5645 5641 5637 5632 5628 5623 5618 5613 5609 5604 5600 5596 5592 5588 5585 5581 5578 5575 5573 5571 5569 5568 5568
5670 5670 5669 5669 5668 5667 5667 5665 5664 5662 5660 5658 5656 5654 5651 5648 5645 5642 5639 5635 5630 5626 5623 5619 5614 5609 5605 5600 5595 5590 5586 5581 5577 5573 5569 5566 5563 5560 5557 5555 5553 5552 5551 5550
5655 5655 5654 5653 5653 5652 5650 5649 5647 5646 5644 5641 5639 5637 5634 5631 5628 5624 5621 5618 5614 5609 5605 5601 5596 5591 5587 5582 5577 5572 5568 5563 5559 5554 5551 5547 5544 5542 5540 5538 5536 5535 5534 5533
5639 5639 5638 5637 5637 5636 5634 5632 5631 5629 5627 5624 5622 5619 5617 5614 5610 5607 5603 5599 5596 5591 5587 5583 5578 5573 5569 5564 5559 5555 5550 5545 5541 5537 5534 5530 5528 5525 5523 5521 5520 5519 5518 5517
5624 5623 5622 5621 5620 5619 5617 5615 5613 5612 5610 5607 5605 5602 5599 5596 5593 5589 5586 5582 5578 5574 5569 5565 5561 5556 5551 5546 5542 5537 5533 5528 5524 5520 5517 5514 5512 5509 5508 5506 5504 5503 5502 5501
5608 5607 5606 5605 5604 5602 5601 5599 5596 5594 5592 5590 5587 5584 5581 5578 5575 5572 5568 5565 5561 5556 5552 5548 5543 5539 5534 5529 5525 5520 5516 5511 5507 5504 5501 5499 5496 5494 5492 5491 5489 5487 5487 5486
5592 5591 5590 5588 5587 5585 5584 5582 5580 5577 5575 5573 5570 5567 5564 5561 5558 5555 5551 5547 5543 5539 5535 5532 5527 5522 5517 5513 5509 5505 5500 5496 5492 5489 5487 5484 5482 5480 5478 5477 5475 5474 5473 5472
5576 5575 5573 5572 5570 5569 5567 5565 5563 5560 5558 5556 5553 5550 5547 5544 5540 5537 5534 5530 5526 5522 5519 5515 5511 5507 5502 5498 5493 5490 5486 5482 5479 5476 5473 5471 5469 5467 5466 5464 5463 5461 5460 5459
5560 5559 5557 5556 5554 5552 5550 5548 5546 5544 5541 5539 5537 5534 5531 5527 5524 5521 5517 5514 5511 5507 5503 5500 5496 5492 5488 5484 5480 5476 5473 5470 5467 5464 5461 5459 5457 5455 5454 5452 5451 5450 5449 5448
Wind_Speed
9 9 8 8 8 8 8 8 8 8 8 8 8 8 8 8 8 8 8 9 10 10 11 11 12 13 13 14 14 15 15 16 16 16 17 17 17 17 17 17 17 17 17 17
9 9 9 8 8 8 8 8 9 9 9 9 9 9 9 9 9 9 10 11 11 12 12 13 13 14 14 15 16 16 17 17 18 18 18 19 19 19 19 19 19 18 18 18
10 10 10 9 8 9 10 10 10 10 10 10 10 10 10 10 11 11 12 12 13 13 14 15 15 15 16 17 17 18 18 19 19 20 20 20 21 21 21 21 21 20 20 19
11 11 12 10 10 10 11 11 11 10 11 11 11 11 11 12 12 13 14 14 15 16 16 17 17 18 19 19 20 20 20 21 21 22 22 23 23 23 23 23 23 23 22 22
13 13 12 11 11 11 11 12 12 12 12 12 13 13 13 14 14 15 16 17 18 18 19 19 20 20 21 21 22 22 23 23 24 24 25 25 25 26 26 26 26 26 25 25
14 14 13 12 13 13 13 13 13 14 14 14 15 15 15 16 17 18 18 19 20 21 21 22 22 23 23 24 24 25 25 26 26 27 28 28 29 29 29 29 29 28 28 28
15 16 15 15 14 15 15 15 15 15 16 16 17 17 18 19 19 20 21 21 22 23 23 24 24 25 26 26 27 28 28 29 29 30 31 31 32 32 32 32 32 31 31 30
17 18 17 17 17 17 17 17 17 18 18 19 19 20 20 21 22 22 23 24 25 25 26 27 27 28 29 29 30 30 31 32 33 33 34 34 34 34 35 35 34 34 34 34
19 19 19 19 19 19 20 20 20 20 21 21 22 23 23 24 24 25 26 27 28 28 29 30 30 31 32 32 33 34 35 36 36 37 37 38 38 37 37 37 37 38 38 37
22 22 22 22 22 22 22 22 23 23 24 24 25 25 26 27 27 28 29 30 31 32 32 33 34 35 36 36 37 37 38 38 39 39 40 40 40 40 41 41 41 41 40 40
24 24 25 25 25 25 25 25 26 26 27 27 28 29 29 30 31 32 33 34 35 35 36 37 38 39 39 40 40 40 41 41 42 42 43 43 44 44 44 44 44 43 43 42
27 27 27 27 27 27 28 28 28 29 30 31 31 32 33 34 35 36 36 37 38 39 40 41 42 42 43 43 43 44 45 45 46 46 46 46 47 47 46 46 46 45 44 44
30 30 30 30 30 30 31 31 32 32 33 34 34 35 36 37 38 39 40 41 42 43 43 44 45 45 46 46 47 48 48 49 50 50 50 50 49 49 49 48 48 47 46 46
33 33 34 34 34 34 34 35 35 36 36 37 38 39 39 40 41 43 44 44 45 46 46 47 47 48 49 49 50 51 52 52 53 53 53 53 52 52 51 51 50 49 48 48
36 36 36 37 37 38 38 38 38 39 39 40 41 42 43 44 45 46 46 47 48 48 49 49 50 50 51 52 53 55 55 55 55 55 55 56 55 55 54 53 53 52 50 49
38 38 39 39 39 40 40 40 41 41 42 43 44 44 45 46 47 48 49 50 50 50 51 52 52 53 54 55 57 57 58 58 58 57 57 57 57 57 56 54 53 53 51 50
39 39 40 40 40 41 41 42 43 43 44 44 45 46 47 48 49 50 51 51 52 52 53 54 54 55 57 58 59 59 59 59 59 58 58 57 57 56 55 54 53 52 51 51
41 41 41 41 42 42 42 43 44 45 46 46 47 48 49 50 51 51 52 52 52 53 55 56 57 58 58 59 59 59 59 59 59 58 57 56 56 55 55 53 52 51 50 50
41 42 42 43 44 44 45 46 47 47 48 49 50 50 51 51 52 52 53 54 55 55 56 57 58 59 59 59 59 59 59 58 58 57 56 55 55 54 53 51 50 49 49 49
44 44 44 45 46 46 47 48 49 49 50 51 51 51 52 52 53 54 54 55 56 57 57 58 58 58 59 59 59 59 58 58 57 56 55 54 53 51 50 49 48 48 48 47
45 45 46 46 47 48 49 49 50 50 51 52 52 52 52 52 53 55 55 55 56 57 57 58 58 58 58 59 58 58 57 57 56 55 54 52 50 49 48 47 47 47 47 47
46 47 47 48 49 49 50 51 51 52 52 52 53 53 53 53 54 55 55 56 56 57 57 57 57 57 57 57 57 56 56 55 54 53 51 49 47 47 46 45 46 45 45 46
47 48 48 49 50 50 51 52 53 53 53 53 53 54 54 54 55 55 55 55 56 56 56 56 56 56 56 56 56 55 54 53 52 50 49 47 46 45 44 43 44 44 44 44
48 49 50 51 51 52 52 52 53 53 53 54 54 54 54 54 54 55 56 56 56 56 55 55 54 55 55 54 54 53 52 50 49 48 46 45 44 43 43 42 42 41 41 42
48 49 50 50 50 51 51 52 52 53 53 53 54 54 54 55 55 55 56 55 55 55 54 53 53 53 53 52 51 50 48 47 46 44 43 41 41 40 40 39 39 38 38 38
48 48 49 49 50 50 50 51 51 52 52 53 53 53 54 54 54 54 54 53 53 52 51 50 50 50 49 48 47 45 44 43 41 40 39 38 38 38 37 36 36 35 35 34
48 49 49 49 49 49 49 50 50 50 51 51 51 51 52 52 52 51 51 50 49 48 48 48 47 46 44 43 41 41 39 38 37 37 36 35 35 34 34 34 33 32 32 31
Wind_Direction
193 197 198 202 206 208 209 210 216 219 220 222 229 235 241 249 258 267 274 279 285 292 295 297 298 297 295 296 297 297 296 296 296 297 298 299 300 301 303 305 306 308 309 311
203 205 209 212 214 215 216 217 222 227 231 233 239 247 254 260 266 272 278 282 286 291 294 296 297 297 296 296 297 297 296 296 295 296 296 296 297 298 299 301 302 302 303 305
216 218 222 222 222 225 226 228 232 235 237 241 248 255 262 269 272 277 282 286 288 290 292 295 296 297 298 297 296 296 296 296 296 295 294 294 295 296 297 298 299 299 299 300
226 230 233 230 230 233 235 237 238 239 241 246 251 258 264 269 274 278 281 284 286 289 291 294 295 296 296 295 295 294 294 294 295 295 295 294 294 294 294 295 295 295 294 294
232 236 239 237 237 239 242 242 242 244 246 250 256 261 266 270 275 278 280 283 286 288 290 292 293 294 294 294 294 293 293 293 294 294 294 293 293 293 293 293 293 293 292 291
237 240 242 241 242 245 249 249 250 251 254 257 262 266 270 273 276 280 283 285 287 289 290 291 292 293 293 293 293 292 292 292 293 294 294 293 292 292 292 291 291 290 289 288
242 244 247 247 248 251 253 256 257 259 261 263 267 270 272 275 277 280 283 285 287 289 290 291 292 293 293 293 292 292 292 292 293 294 294 293 292 291 290 289 288 287 287 286
246 248 250 251 253 254 257 259 261 263 265 267 269 271 273 276 278 281 284 286 288 289 290 291 292 293 293 294 293 292 291 292 292 293 293 292 291 290 289 287 286 285 285 284
250 252 254 255 257 258 260 262 265 267 268 270 272 274 275 277 279 281 283 285 287 288 289 290 291 291 292 293 293 293 292 292 292 293 293 292 290 288 286 285 285 284 283 281
254 255 256 258 260 262 264 265 267 268 270 272 274 275 277 279 280 282 283 285 286 287 288 289 289 290 291 291 292 292 292 292 292 292 292 291 289 287 285 284 282 282 281 279
257 258 259 260 263 264 266 267 269 271 272 274 275 277 279 280 282 283 284 285 286 287 288 288 288 289 290 291 291 292 292 292 292 292 291 290 288 286 284 283 282 281 280 278
259 261 262 263 265 267 268 270 272 273 275 276 278 279 281 282 283 285 286 287 288 288 288 288 288 289 290 290 291 291 291 292 292 291 291 290 289 286 283 282 281 280 279 277
261 263 264 266 267 269 271 272 274 275 276 277 278 280 281 283 284 286 287 288 289 289 289 289 289 289 289 290 290 291 291 292 292 291 291 290 289 287 283 281 279 278 277 276
262 263 265 267 268 270 271 273 275 276 277 278 280 281 282 284 285 286 287 288 289 290 290 290 289 289 289 289 290 291 291 291 291 291 290 289 288 287 285 282 279 277 276 274
263 265 266 268 269 270 272 273 275 276 278 279 281 282 283 285 286 287 288 289 289 289 289 289 289 290 290 290 290 291 291 291 290 289 289 288 287 287 285 282 280 278 275 273
266 267 268 269 270 271 273 274 276 277 278 280 281 283 284 285 286 287 288 289 289 289 289 289 290 290 290 291 291 291 291 290 290 289 288 288 287 286 285 282 279 277 275 273
267 268 269 270 271 272 273 275 276 277 279 280 282 283 285 286 287 287 288 289 289 289 289 290 291 291 291 291 291 292 291 291 290 289 288 288 287 286 284 282 279 277 275 273
267 269 270 271 272 273 274 275 277 278 280 281 282 284 285 286 287 288 288 289 289 289 290 291 291 292 292 292 292 292 291 291 290 289 288 288 286 285 284 282 279 277 275 272
269 270 271 272 273 274 275 277 278 279 281 282 283 285 286 287 287 288 289 289 289 290 290 291 292 292 292 292 292 292 292 291 290 289 288 287 285 284 283 281 278 276 274 272
270 270 271 272 274 275 276 278 279 280 281 282 284 285 286 287 287 288 289 290 290 291 291 292 292 292 292 292 292 292 292 292 290 288 287 286 284 283 281 279 277 275 273 272
271 272 273 274 275 276 278 279 280 281 282 283 285 286 286 287 288 289 289 290 290 291 292 292 292 292 293 293 293 293 292 292 290 288 287 285 283 282 281 279 277 274 273 271
272 273 274 275 275 277 278 279 280 281 282 283 285 286 287 287 288 289 290 290 291 292 292 292 292 293 293 293 293 293 293 292 290 289 287 285 283 281 280 278 276 274 273 271
273 274 275 276 277 278 279 280 280 282 283 284 285 286 287 288 289 290 290 291 292 293 293 293 292 293 293 293 294 294 293 291 289 288 285 284 283 280 279 278 277 275 273 271
275 276 276 277 279 280 280 281 281 282 283 284 285 286 287 288 289 290 291 291 292 293 293 293 293 293 293 293 294 293 293 291 289 286 284 282 281 279 278 278 277 275 274 272
277 278 278 279 280 281 281 281 282 283 284 285 285 286 287 288 289 290 291 291 291 292 292 293 293 294 294 294 293 293 292 290 289 286 283 281 280 279 278 278 277 276 275 274
278 279 280 280 281 282 282 283 283 283 284 285 285 286 287 288 290 291 291 291 291 291 292 293 294 294 294 294 293 292 292 291 289 286 283 281 280 279 278 278 278 277 275 273
278 279 280 280 281 281 282 283 284 284 285 285 286 286 287 288 289 290 291 291 291 291 292 293 294 294 295 295 294 293 292 291 290 287 284 283 281 279 278 279 278 276 274 271